CZ-2C R/B - Orbit

View from above orbital plane
View from above orbital plane
View from above satellite
View from above satellite

Ground track
Ground track

The orbit data is extracted from the following two-line orbital elements,

1 28480U 04046B   13143.51036767  .00000044  00000-0  32648-4 0   696
2 28480 098.0552 325.5172 0141767 295.2569 121.7593 14.25116614442584
Epoch (UTC): 23 May 2013 12:14:55
Eccentricity: 0.0141767
inclination: 98.0552°
perigee height: 706 km
apogee height: 910 km
right ascension of ascending node: 325.5172°
argument of perigee: 295.2569°
revolutions per day: 14.25116614
mean anomaly at epoch: 121.7593°
orbit number at epoch: 44258

The dashed part of the orbit path shows where the satellite is in the earth's shadow,  

Developed and maintained by Chris Peat, Heavens-Above GmbH. Please read the updated FAQ before sending e-mail. Imprint. DLR